Location: Munkebjergskolens Observatorium
(55.3864°N, 10.3987°E)
Time: 14:29:27
(UTC+01:00)

AO-92 - Visible Passes

Search period start: 25 March 2023 00:00
Search period end: 04 April 2023 01:00
Orbit: 441 x 451 km, 97.3° (Epoch: 25 March)

Date Brightness Start Highest point End Pass type
(mag) Time Alt. Az. Time Alt. Az. Time Alt. Az.
25 Mar ? 20:42:28 11° NE 20:42:28 11° NE 20:43:12 10° NE visible
25 Mar ? 22:16:01 26° NNW 22:16:01 26° NNW 22:17:35 10° NNW visible
26 Mar ? 22:39:22 25° NNE 22:39:22 25° NNE 22:41:10 10° N visible
27 Mar ? 00:12:55 14° NW 00:12:55 14° NW 00:13:39 10° NW visible
27 Mar ? 22:02:37 16° NE 22:02:37 16° NE 22:04:14 10° NNE visible
27 Mar ? 23:36:10 25° NNW 23:36:10 25° NNW 23:37:43 10° NNW visible
28 Mar ? 22:59:20 31° N 22:59:20 31° N 23:01:18 10° N visible
29 Mar ? 00:32:52 11° NW 00:32:52 11° NW 00:33:04 10° NW visible
29 Mar ? 22:22:24 22° NE 22:22:24 22° NE 22:24:27 10° N visible
29 Mar ? 23:55:56 21° NW 23:55:56 21° NW 23:57:22 10° NNW visible
30 Mar ? 21:45:24 12° ENE 21:45:27 12° NE 21:46:47 10° NNE visible
30 Mar ? 23:18:56 34° NNW 23:18:56 34° NNW 23:20:58 10° NNW visible
31 Mar ? 22:41:50 30° NE 22:41:50 30° NE 22:44:07 10° N visible
01 Apr ? 00:15:21 16° NW 00:15:21 16° NW 00:16:29 10° NW visible
01 Apr ? 22:04:38 17° ENE 22:04:38 17° ENE 22:06:46 10° NNE visible
01 Apr ? 23:38:09 31° NW 23:38:09 31° NW 23:40:10 10° NNW visible
02 Apr ? 23:00:53 41° NNE 23:00:53 41° NNE 23:03:19 10° N visible
03 Apr ? 00:34:24 12° WNW 00:34:24 12° WNW 00:35:00 10° NW visible
03 Apr ? 22:23:31 24° NE 22:23:31 24° NE 22:26:02 10° N visible
03 Apr ? 23:57:02 25° NW 23:57:02 25° NW 23:58:54 10° NNW visible
